This demonstration page uses our WeatherBlox Daily Observations layout. Learn more.

Left ArrowRight Arrow

Hourly Observations for September 7, 2015

Temp ( °F °C ) Dew Point ( °F °C ) Humidity (%) Winds ( mph kmh ) Pressure ( in mb ) Visibility ( mi km ) Precip ( " mm )
12:53 am 00:53 Clear 68 20 64 17.8 87 87 NNE 8 13 29.94 1014 10 16 0.00 0.00
1:29 am 01:29 Mostly Cloudy 69 20.6 64 17.8 84 84 NNE 10 17 29.94 1014 10 16 0.00 0.00
1:53 am 01:53 Cloudy 70 21.1 64 17.8 82 82 NE 12 19 29.94 1014 10 16 0.00 0.00
2:45 am 02:45 Partly Cloudy 69 20.6 65 18.3 87 87 NE 10 17 29.94 1014 10 16 0.00 0.00
2:53 am 02:53 Mostly Clear 68 20 65 18.3 90 90 NNE 10 17 29.93 1014 10 16 0.00 0.00
3:53 am 03:53 Clear 66 18.9 63 17.2 90 90 NNE 9 15 29.92 1013 10 16 0.00 0.00
4:53 am 04:53 Clear 65 18.3 63 17.2 93 93 NE 8 13 29.93 1014 10 16 0.00 0.00
5:31 am 05:31 Partly Cloudy 65 18.3 63 17.2 93 93 NE 9 15 29.91 1013 8 13 0.00 0.00
5:43 am 05:43 Mostly Cloudy 65 18.3 64 17.8 97 97 NE 8 13 29.91 1013 7 11 0.00 0.00
5:53 am 05:53 Cloudy 65 18.3 64 17.8 97 97 ENE 7 11 29.92 1013 7 11 0.00 0.00
6:17 am 06:17 Cloudy with Mist and Fog 65 18.3 64 17.8 97 97 NE 7 11 29.91 1013 6 10 0.00 0.00
6:53 am 06:53 Cloudy with Mist and Fog 67 19.4 65 18.3 93 93 NE 6 9 29.92 1013 6 10 0.00 0.00
7:43 am 07:43 Cloudy with Mist and Fog 67 19.4 66 18.9 97 97 ENE 5 7 29.94 1014 2 3 0.00 0.00
7:53 am 07:53 Cloudy with Mist and Fog 67 19.4 66 18.9 97 97 ENE 6 9 29.95 1014 1 2 0.00 0.00
8:05 am 08:05 Cloudy with Fog 67 19.4 67 19.4 100 100 ENE 7 11 29.94 1014 1 1 0.00 0.00
8:53 am 08:53 Mostly Cloudy with Fog 69 20.6 68 20 96 96 NE 5 7 29.96 1014 0 0 0.00 0.00
9:53 am 09:53 Mostly Cloudy with Fog 69 20.6 69 20.6 100 100 NE 7 11 29.96 1015 0 0 0.00 0.00
10:50 am 10:50 Cloudy with Mist and Fog 70 21 70 21 100 100 E 12 19 29.91 1013 1 2 0.00 0.00
10:53 am 10:53 Cloudy with Mist and Fog 70 21.1 69 20.6 97 97 E 13 20 29.92 1013 1 2 0.00 0.00
11:24 am 11:24 Cloudy with Mist and Fog 73 23 70 21 89 89 ESE 12 19 29.85 1011 5 8 0.00 0.00
11:53 am 11:53 Cloudy 79 26.1 70 21.1 74 74 SE 17 28 29.88 1012 10 16 0.00 0.00
12:16 pm 12:16 Mostly Cloudy with Light Rain 77 25 70 21.1 79 79 E 12 19 29.85 1011 9 14 0.00 0.03
12:51 pm 12:51 Cloudy with Thunderstorms 75 24 70 21 83 83 N 9 15 29.91 1013 9 14 0.00 0.03
12:53 pm 12:53 Cloudy with Thunderstorms 76 24.4 70 21.1 82 82 NNW 12 19 29.96 1015 9 14 0.00 0.03
1:05 pm 13:05 Cloudy with Nearby Thunderstorms 73 23 72 22 94 94 NNW 12 19 29.94 1014 7 11 0.00 0.00
1:10 pm 13:10 Cloudy with Thunderstorms 73 23 72 22 94 94 NNW 16 26 29.94 1014 6 10 0.00 0.00
1:23 pm 13:23 Cloudy with Nearby Thunderstorms 71 21.7 69 20.6 94 94 NE 9 15 29.94 1014 4 6 0.01 0.25
1:48 pm 13:48 Cloudy with Nearby Thunderstorms 72 22 70 21 94 94 NE 15 24 29.85 1011 4 6 0.00 0.00
1:53 pm 13:53 Cloudy with Light Rain 73 22.8 71 21.7 94 94 NE 17 28 29.88 1012 4 6 0.02 0.51
2:17 pm 14:17 Mostly Cloudy 75 23.9 72 22.2 90 90 NE 14 22 29.85 1011 7 11 0.00 0.03
2:53 pm 14:53 Partly Cloudy 79 26.1 72 22.2 79 79 E 12 19 29.86 1011 10 16 0.00 0.03
3:26 pm 15:26 Mostly Cloudy 79 26.1 72 22.2 79 79 ENE 10 17 29.80 1009 10 16 0.00 0.00
3:33 pm 15:33 Partly Cloudy 80 26.7 72 22.2 76 76 E 12 19 29.80 1009 10 16 0.00 0.00
3:53 pm 15:53 Sunny 81 27.2 72 22.2 74 74 E 13 20 29.83 1010 10 16 0.00 0.00
4:53 pm 16:53 Mostly Sunny 81 27.2 71 21.7 72 72 E 9 15 29.83 1010 10 16 0.00 0.00
5:53 pm 17:53 Mostly Cloudy 81 27.2 72 22.2 74 74 ENE 9 15 29.82 1010 10 16 0.00 0.00
6:53 pm 18:53 Mostly Cloudy 79 26.1 72 22.2 79 79 ENE 7 11 29.82 1010 10 16 0.00 0.00
7:53 pm 19:53 Mostly Cloudy 76 24.4 72 22.2 88 88 NE 8 13 29.82 1010 9 14 0.00 0.00
8:53 pm 20:53 Cloudy with Thunderstorms 75 23.9 70 21.1 84 84 ENE 7 11 29.84 1011 10 16 0.00 0.00
9:27 pm 21:27 Mostly Cloudy 71 21.7 68 20 90 90 E 6 9 29.83 1010 10 16 0.01 0.25
9:53 pm 21:53 Mostly Clear 70 21.1 68 20 93 93 E 5 7 29.88 1012 10 16 0.01 0.25
10:25 pm 22:25 Mostly Cloudy 70 21.1 68 20 93 93 ESE 7 11 29.85 1011 9 14 0.00 0.00
10:53 pm 22:53 Mostly Cloudy 70 21.1 68 20 93 93 Calm 29.90 1012 10 16 0.00 0.00
11:17 pm 23:17 Mostly Cloudy with Nearby Thunderstorms 69 20.6 68 20 96 96 ESE 7 11 29.85 1011 8 13 0.00 0.00
11:41 pm 23:41 Mostly Cloudy 69 20.6 68 20 96 96 NNE 5 7 29.88 1012 7 11 0.00 0.00
11:50 pm 23:50 Mostly Cloudy 70 21 68 20 94 94 ENE 3 6 29.85 1011 8 13 0.00 0.00
11:53 pm 23:53 Mostly Cloudy 69 20.6 68 20 96 96 E 5 7 29.86 1011 9 14 0.00 0.00

Powered by AerisWeather